sat.trackr.live / text

‹ back to catalog

FLOCK 4H-11

NORAD 66714 · 2025-276BA

PAYLOAD ACTIVE UNKNOWN

§ Identity

Operator
Country
US
Launch date
2025-11-28
Launch site
AFWTR
Launch vehicle
Mass (kg)
RCS (m²)

Purposes: earth_obs

External: N2YO · Heavens-Above · Gunter

§ Orbital elements

Epoch: 2026-08-27T03:59:39.079392Z

Period
94.47 min
Inclination
97.4157°
Eccentricity
0.0004290
Mean motion
15.24329840 rev/d
Perigee alt
489.9 km
Apogee alt
495.7 km
Semi-major
6,870.9 km
B*
5.9067e-4
RAAN
312.3053°
Arg perigee
116.7878°
Mean anomaly
243.3798°
Rev number
4,125

§ Raw data

FLOCK 4H-111 66714U 25276BA  26239.16642453  .00014395  00000+0  59067-3 0  99902 66714  97.4157 312.3053 0004290 116.7878 243.3798 15.24329840 41255

JSON: /api/v1/satellites/66714 · /tle

For live sub-satellite position, see the globe view (requires WebGL).

§ Visibility from observer

Set your observer location to see the next 7 days of passes ≥ 10°. The values pass through the URL so the page stays shareable.

No JS? Fill the form by hand. The geolocation button needs JavaScript.